Weather in Medyakovo

Russia / Novosibirsk Oblast     54°07′43″N   77°05′31″E
temp.,
°C
wind,
m/s
gust,
m/s
humid.,
%
clouds,
%
prec.,
mm/h
press.,
hPa
HPBL,
m
2 march, tue
tue201:00−15nnw239689 0.1 101328
04:00−17nw239792 0.0 101421
07:00−19wnw239982 0.1 101620
10:00−19wnw239863 0.0 101723
13:00−16wsw239265 0.0 1017201
16:00−14wsw239398 0.0 1016303
19:00−16w229599 0.0 101620
22:00−15sw229694 0.1 101722
3 march, wed
wed301:00−16sw239687 0.1 101728
04:00−17sw339776 0.1 101731
07:00−18sw349778 0.1 101862
10:00−18ssw359782 0.0 1018121
13:00−14ssw589389 0.1 1018338
16:00−13ssw6109197 0.0 1018423
19:00−14ssw6139193 0.0 1018423
22:00−12ssw7139099 0.0 1017503
4 march, thu
thu401:00−9ssw71393100 0.3 1016520
04:00−9ssw81494100 0.6 1015465
07:00−8ssw81492100 0.8 1015489
10:00−5ssw81593100 0.2 1013634
13:00−3ssw91494100 0.8 1013721
16:00−2ssw91494100 0.4 1012830
19:00−1ssw81587100 0.8 1011924
22:00−2ssw91594100 0.3 1010785
5 march, fri
fri501:00−2ssw81594100 0.9 1009696
04:00−3ssw81494100 0.5 1007555
07:00−3ssw61295100 0.8 1008463
10:00−3w61092100 0.4 1009525
13:00−7w7119068 0.4 1013406
16:00−7wsw712860 0.0 1016516
19:00−8sw817856 0.0 1017568
22:00−7sw111985100 0.0 1016792
6 march, sat
sat601:00−5sw101789100 0.1 1016911
04:00−4sw101689100 0.1 1015878
07:00−5sw91694100 0.7 1016809
10:00−5sw81591100 0.7 1016699
13:00−5sw81390100 0.8 1016682
16:00−4sw81292100 0.3 1017678
19:00−4sw71189100 0.3 1017640
22:00−6sw41092100 0.0 1018316